Location: Winthrop
(48.4780°N, 120.1850°W)
Time: 22:51:56
(UTC-07:00)

A-11 Canister half - Pass Details

Date: 07 June 2023
Orbit: 1515 x 1684 km, 47.2° (Epoch: 29 September)

Event Time Altitude Azimuth Distance (km) Brightness Sun altitude
Exits shadow 23:41:00 13° 127° (SE) 3,592 10.4 -16.5°
Maximum altitude 23:41:25 13° 124° (SE) 3,587 10.5 -16.6°
Drops below altitude 10° 23:45:25 10° 99° (E) 3,822 10.8 -16.8°
Sets 23:50:44 0° 75° (ENE) 4,774 11.6 -17.0°
